| time (UTC) | temp C | wind direction | speed KPH | gust KPH | rain 1hr cm | rain 24hr cm | rain mn cm | humidity % | barometer mb |
| 20260503190108 | 15 | 24 | 8.0 | 17.7 | 0.00 | 0.00 | 0.00 | 31 | 1019.5 |
| 20260503184553 | 15 | 360 | 8.0 | 20.9 | 0.00 | 0.00 | 0.00 | 34 | 1019.6 |
| 20260503183100 | 16 | 360 | 8.0 | 17.7 | 0.00 | 0.00 | 0.00 | 35 | 1019.5 |
| 20260503181547 | 15 | 79 | 8.0 | 16.1 | 0.00 | 0.00 | 0.00 | 36 | 1019.9 |
| 20260503180055 | 15 | 97 | 8.0 | 24.1 | 0.00 | 0.00 | 0.00 | 45 | 1020.1 |
| 20260503174544 | 14 | 204 | 12.9 | 30.6 | 0.00 | 0.00 | 0.00 | 51 | 1020.1 |
| 20260503173104 | 14 | 208 | 8.0 | 19.3 | 0.00 | 0.00 | 0.00 | 45 | 1020.2 |
| 20260503171549 | 13 | 286 | 8.0 | 19.3 | 0.00 | 0.00 | 0.00 | 49 | 1020.5 |
| 20260503110107 | 1 | 68 | 0.0 | 3.2 | 0.00 | 0.00 | 0.00 | 94 | 1019.9 |
| 20260503081541 | 2 | 61 | 0.0 | 3.2 | 0.00 | 0.00 | 0.00 | 86 | 1018.2 |
| 20260503071528 | 3 | 81 | 0.0 | 3.2 | 0.00 | 0.00 | 0.00 | 85 | 1017.6 |
| 20260503054513 | 5 | 81 | 3.2 | 6.4 | 0.00 | 0.00 | 0.00 | 80 | 1017.2 |
| 20260503053012 | 5 | 84 | 0.0 | 8.0 | 0.00 | 0.00 | 0.00 | 80 | 1017.2 |
| 20260503051508 | 5 | 83 | 1.6 | 11.3 | 0.00 | 0.00 | 0.00 | 79 | 1017.2 |
| 20260503050010 | 5 | 72 | 0.0 | 8.0 | 0.00 | 0.00 | 0.00 | 79 | 1017.1 |
| 20260503044507 | 5 | 62 | 0.0 | 6.4 | 0.00 | 0.00 | 0.00 | 77 | 1016.9 |
| 20260503043001 | 5 | 51 | 1.6 | 14.5 | 0.00 | 0.00 | 0.00 | 76 | 1016.9 |
| 20260503041558 | 5 | 48 | 1.6 | 4.8 | 0.00 | 0.00 | 0.00 | 75 | 1016.6 |
| 20260503040055 | 5 | 236 | 3.2 | 17.7 | 0.00 | 0.00 | 0.00 | 73 | 1016.4 |
| 20260503034553 | 5 | 83 | 1.6 | 9.7 | 0.00 | 0.00 | 0.00 | 75 | 1016.1 |
| 20260503033052 | 5 | 122 | 0.0 | 8.0 | 0.00 | 0.00 | 0.00 | 75 | 1016.2 |
| 20260503031549 | 6 | 123 | 1.6 | 4.8 | 0.00 | 0.00 | 0.00 | 73 | 1016.2 |
| 20260503030047 | 6 | 121 | 4.8 | 8.0 | 0.00 | 0.00 | 0.00 | 72 | 1016.0 |
| 20260503024544 | 6 | 59 | 0.0 | 6.4 | 0.00 | 0.00 | 0.00 | 70 | 1015.9 |
| 20260503023042 | 6 | 284 | 0.0 | 11.3 | 0.00 | 0.00 | 0.00 | 70 | 1015.9 |
| 20260503021546 | 7 | 136 | 1.6 | 8.0 | 0.00 | 0.00 | 0.00 | 67 | 1015.7 |
| 20260503020039 | 7 | 146 | 0.0 | 6.4 | 0.00 | 0.00 | 0.00 | 67 | 1015.7 |
| 20260503014551 | 8 | 138 | 1.6 | 6.4 | 0.00 | 0.00 | 0.00 | 64 | 1015.6 |
| 20260503013037 | 8 | 76 | 6.4 | 12.9 | 0.00 | 0.00 | 0.00 | 61 | 1015.4 |
| 20260503011532 | 8 | 321 | 1.6 | 6.4 | 0.00 | 0.00 | 0.00 | 62 | 1015.3 |
| 20260503010031 | 9 | 287 | 1.6 | 11.3 | 0.00 | 0.00 | 0.00 | 58 | 1015.1 |
| 20260503004530 | 9 | 67 | 4.8 | 17.7 | 0.00 | 0.00 | 0.00 | 55 | 1015.0 |
| 20260503003027 | 9 | 33 | 4.8 | 11.3 | 0.00 | 0.00 | 0.00 | 55 | 1014.8 |
| 20260503001527 | 9 | 94 | 4.8 | 11.3 | 0.00 | 0.00 | 0.00 | 56 | 1014.6 |
| 20260503000023 | 10 | 360 | 3.2 | 11.3 | 0.00 | 0.00 | 0.00 | 53 | 1014.3 |
| 20260502234525 | 10 | 360 | 9.7 | 19.3 | 0.00 | 0.00 | 0.00 | 51 | 1013.8 |
| 20260502233021 | 11 | 244 | 4.8 | 14.5 | 0.00 | 0.00 | 0.00 | 51 | 1013.7 |
| 20260502231524 | 11 | 82 | 8.0 | 19.3 | 0.00 | 0.00 | 0.00 | 50 | 1013.6 |
| 20260502230021 | 12 | 326 | 9.7 | 24.1 | 0.00 | 0.00 | 0.00 | 48 | 1013.4 |
| 20260502224523 | 12 | 296 | 9.7 | 20.9 | 0.00 | 0.00 | 0.00 | 49 | 1013.2 |
| 20260502223018 | 12 | 347 | 8.0 | 19.3 | 0.00 | 0.00 | 0.00 | 46 | 1013.2 |
| 20260502221518 | 12 | 346 | 8.0 | 17.7 | 0.00 | 0.00 | 0.00 | 49 | 1013.2 |
| 20260502220017 | 13 | 70 | 12.9 | 30.6 | 0.00 | 0.00 | 0.00 | 47 | 1013.0 |
| 20260502214517 | 12 | 63 | 9.7 | 22.5 | 0.00 | 0.00 | 0.00 | 48 | 1012.7 |
| 20260502213016 | 12 | 97 | 6.4 | 19.3 | 0.00 | 0.00 | 0.00 | 45 | 1012.5 |
| 20260502211532 | 12 | 189 | 4.8 | 14.5 | 0.00 | 0.00 | 0.00 | 47 | 1012.4 |
| 20260502210017 | 13 | 17 | 8.0 | 22.5 | 0.00 | 0.00 | 0.00 | 45 | 1012.4 |
| 20260502204515 | 13 | 360 | 9.7 | 19.3 | 0.00 | 0.00 | 0.00 | 42 | 1012.4 |
| 20260502203015 | 15 | 67 | 9.7 | 14.5 | 0.00 | 0.00 | 0.00 | 44 | 1012.2 |
| 20260502201512 | 15 | 254 | 8.0 | 20.9 | 0.00 | 0.00 | 0.00 | 45 | 1012.2 |
| 20260502200010 | 13 | 194 | 8.0 | 17.7 | 0.00 | 0.00 | 0.00 | 42 | 1012.1 |
| 20260502194510 | 15 | 360 | 8.0 | 17.7 | 0.00 | 0.00 | 0.00 | 48 | 1012.3 |
| 20260502193008 | 13 | 301 | 9.7 | 19.3 | 0.00 | 0.00 | 0.00 | 47 | 1012.5 |
| 20260502191508 | 13 | 36 | 9.7 | 17.7 | 0.00 | 0.00 | 0.00 | 49 | 1012.5 |